[[{"header":{"parameterUnit":"m.s-1","parameterCategory":1,"la1":30.2991,"la2":30.254,"lo1":-89.0895,"lo2":-89.0444,"dy":0.0017,"dx":0.0017,"nx":28,"ny":28,"refTime":"2023-08-22T03:00:00:Z","depth":0,"parameterNumber":2,"parameterNumberName":"U-component_of_WINDS"},"data":[0,0,0,0,0,0,0,0,0,0,0,0,0,0,0,0,0,0,0,0,0,0,0,0,0,0,0,0,0,0,0,0,0,0,0,0,0,0,0,0,0,0,0,0,0,0,0,0,0,0,0,0,0,0,0,0,0,0,-4.7953,-4.7953,0,-4.7948,-4.7948,-4.7948,-4.7812,-4.7808,-4.7805,-4.7801,-4.7796,-4.7799,-4.7802,0,0,0,0,0,0,0,0,0,0,0,0,0,-4.7843,-4.7846,-4.7953,-4.7953,-4.7953,-4.7948,-4.7948,-4.7948,-4.7812,-4.7808,-4.7804,-4.78,-4.7795,-4.7798,-4.7802,0,0,0,0,0,0,0,0,0,0,0,0,0,-4.787,-4.7847,-4.7953,-4.7885,-4.7878,-4.7948,-4.7948,-4.7948,-4.7813,-4.7808,-4.7803,-4.7798,-4.7794,-4.7798,-4.7803,-4.7938,0,0,-4.7817,-4.7819,0,0,0,0,0,0,0,0,-4.7869,-4.7874,-4.7895,-4.789,-4.7883,-4.7875,-4.7907,-4.7945,-4.7815,-4.7838,-4.7801,-4.7795,-4.7826,-4.7828,-4.7839,-4.7937,-4.7937,-4.7818,-4.782,-4.7822,-4.7824,0,0,0,0,0,0,0,-4.7867,-4.7874,-4.7951,-4.7895,-4.7888,-4.7854,-4.7852,-4.7914,-4.7862,-4.7836,-4.7826,-4.7827,-4.7822,-4.7835,-4.7838,-4.7937,-4.7817,-4.7822,-4.7824,-4.7826,-4.8144,-4.815,0,0,0,0,0,0,-4.7875,-4.7873,-4.7951,-4.7951,-4.7863,-4.786,-4.7858,-4.7883,-4.7861,-4.7852,-4.7832,-4.7821,-4.7829,-4.7832,-4.7837,-4.7991,-4.7822,-4.7827,-4.7829,-4.8139,-4.8145,-4.8152,0,0,0,0,0,0,-4.7873,-4.7883,-4.7951,-4.7909,-4.7915,-4.7868,-4.7897,-4.7886,-4.7898,-4.7858,-4.7848,-4.7854,-4.7825,-4.783,-4.7913,-4.7989,-4.7829,-4.7833,-4.8132,-4.8141,-4.8148,-4.8303,0,0,0,0,0,0,-4.7871,-4.7883,-4.7934,-4.7912,-4.7918,-4.8029,-4.7902,-4.7889,-4.7906,-4.7892,-4.7876,-4.7868,-4.7821,-4.7907,-4.7918,-4.7993,-4.7837,-4.8125,-4.8136,-4.8146,-4.8291,-4.8315,-4.8337,0,0,0,0,0,-4.7867,-4.7978,-4.7938,-4.7948,-4.7981,-4.8033,-4.8037,-4.7981,-4.7913,-4.7963,-4.7938,-4.7869,-4.798,-4.7917,-4.7928,-4.8005,-4.812,-4.8133,-4.8145,-4.828,-4.8311,-4.8336,0,0,0,0,0,0,-4.8011,-4.7974,-4.7928,-4.8036,-4.8039,-4.801,-4.8072,-4.8015,-4.8037,-4.8023,-4.7952,-4.795,-4.8043,-4.8033,-4.7963,-4.8134,-4.8038,-4.8053,-4.8137,-4.8165,-4.8188,-4.8187,-4.7841,0,0,0,0,0,-4.8055,-4.8101,-4.8066,-4.8164,-4.8168,-4.812,-4.8141,-4.8097,-4.8097,-4.8098,-4.8078,-4.8081,-4.8116,-4.814,-4.8171,-4.829,-4.8283,-4.8349,-4.8372,-4.8391,-4.8404,-4.8464,-4.8492,-4.8193,-4.8193,-4.8193,0,0,-4.8146,-4.8132,-4.8165,-4.8192,-4.8189,-4.8237,-4.8122,-4.8178,-4.8213,-4.8106,-4.8182,-4.8169,-4.8167,-4.8268,-4.8312,-4.8262,-4.8486,-4.8407,-4.8422,-4.8425,-4.848,-4.8509,-4.8534,-4.8202,-4.82,-4.8199,0,0,-4.8337,-4.8332,-4.8411,-4.8411,-4.8409,-4.8376,-4.8396,-4.8376,-4.8363,-4.8439,-4.8359,-4.84,-4.8463,-4.8464,-4.8473,-4.8666,-4.8602,-4.8678,-4.8797,-4.8857,-4.888,-4.8901,-4.8967,-4.8992,-4.8692,-4.8692,-4.8692,0,-4.845,-4.852,-4.846,-4.8521,-4.8534,-4.8441,-4.8521,-4.8524,-4.8532,-4.8543,-4.8488,-4.8564,-4.8557,-4.8656,-4.8703,-4.8714,-4.8733,-4.8678,-4.8882,-4.8902,-4.892,-4.8982,-4.9008,-4.8701,-4.87,-4.8699,-4.8698,0,-4.8659,-4.8709,-4.8773,-4.8783,-4.8804,-4.8875,-4.8825,-4.8854,-4.8809,-4.8783,-4.8861,-4.8849,-4.8874,-4.8895,-4.8853,-4.8989,-4.8958,-4.8894,-4.8795,-4.8958,-4.9016,-4.9039,-4.8714,-4.8711,-4.8708,-4.8706,0,0,-4.8937,-4.8913,-4.8938,-4.894,-4.8931,-4.8968,-4.9034,-4.9059,-4.9085,-4.9094,-4.9146,-4.9202,-4.9143,-4.9153,-4.911,-4.9163,-4.9314,-4.9092,-4.9091,-4.9131,-4.9461,-4.9507,-4.9535,-4.9273,-4.9277,-4.9281,-4.946,0,-4.9119,-4.923,-4.9178,-4.9295,-4.9339,-4.9252,-4.9309,-4.931,-4.9287,-4.9321,-4.9296,-4.9336,-4.9256,-4.9261,-4.931,-4.9285,-4.9378,-4.9272,-4.932,-4.9322,-4.932,-4.9566,-4.9615,-4.9784,-4.9482,-4.9486,-4.9489,0,-4.9346,-4.9364,-4.9485,-4.9467,-4.9483,-4.9536,-4.9554,-4.9589,-4.9587,-4.9567,-4.958,-4.9525,-4.9587,-4.9493,-4.9578,-4.9506,-4.9523,-4.9514,-4.952,-4.9519,-4.9413,-4.957,-4.9837,-4.9861,-4.9524,-4.9521,-4.9519,0,-4.9533,-4.9589,-4.9667,-4.9673,-4.9654,-4.9693,-4.9687,-4.9681,-4.9699,-4.9716,-4.9727,-4.9751,-4.9764,-4.9784,-4.9736,-4.9672,-4.9828,-4.9729,-4.9811,-4.9813,-4.9845,-4.9843,-5.0116,-4.9862,-4.9862,-4.9861,-4.9861,0,-4.974,-4.9817,-4.9751,-4.98,-4.9883,-4.9823,-4.9907,-4.9892,-4.9887,-4.9931,-4.9858,-4.99,-4.9836,-4.9873,-4.9837,-4.9911,-4.9919,-4.9903,-4.9892,-4.9908,-4.991,-4.9916,-4.9902,-4.9868,-4.9866,-4.9865,-4.9864,0,-4.9962,-4.9922,-5.0002,-4.9978,-4.9974,-5.0036,-5.0016,-5.0059,-5.0032,-5.0088,-5.0098,-5.0056,-5.0095,-5.005,-5.0086,-5.0061,-5.0162,-5.0135,-5.0162,-5.0153,-5.0237,-5.0229,-5.0522,-5.0556,-5.0283,-5.0285,-5.0287,0,-5.0096,-5.0153,-5.0135,-5.0159,-5.0157,-5.0197,-5.0215,-5.0159,-5.0181,-5.0184,-5.0227,-5.026,-5.0283,-5.0349,-5.0321,-5.0348,-5.0319,-5.042,-5.0322,-5.0336,-5.0317,-5.0313,-5.0318,-5.0439,-5.0442,-5.0445,-5.0447,0,-5.0336,-5.0313,-5.0342,-5.0364,-5.0388,-5.0403,-5.0412,-5.0436,-5.0378,-5.0406,-5.0445,-5.0463,-5.0499,-5.0531,-5.055,-5.0544,-5.0486,-5.0478,-5.0498,-5.0513,-5.0526,-5.0518,-5.0213,-5.0471,-5.0468,-5.0467,-5.0465,-5.0464,-5.0515,-5.0561,-5.0556,-5.0591,-5.0592,-5.0603,-5.0642,-5.062,-5.0651,-5.0676,-5.0641,-5.0689,-5.0686,-5.0705,-5.0706,-5.0742,-5.0699,-5.0729,-5.0735,-5.0743,-5.0754,-5.0523,-5.0746,-5.0745,-5.0744,-5.0744,-5.0743,0,-5.0749,-5.0742,-5.0774,-5.0789,-5.0817,-5.0761,-5.0768,-5.0795,-5.0838,-5.084,-5.0864,-5.0908,-5.094,-5.0916,-5.0942,-5.0976,-5.0949,-5.0984,-5.098,-5.0979,-5.0793,-5.0772,-5.1005,-5.1005,-5.1005,-5.1005,-5.1005,-5.1005,-5.0874,-5.0948,-5.0925,-5.0999,-5.099,-5.1036,-5.1045,-5.1054,-5.1056,-5.1108,-5.1134,-5.1118,-5.111,-5.1135,-5.1161,-5.1153,-5.1165,-5.1209,-5.1192,-5.1018,-5.0992,-5.0967,-5.0947,-5.1213,-5.1213,-5.1374,-5.1375,-5.1377]},{"header":{"parameterUnit":"m.s-1","parameterCategory":1,"la1":30.2991,"la2":30.254,"lo1":-89.0895,"lo2":-89.0444,"dy":0.0017,"dx":0.0017,"nx":28,"ny":28,"refTime":"2023-08-22T03:00:00:Z","depth":0,"parameterNumber":3,"parameterNumberName":"V-component_of_WINDS"},"data":[0,0,0,0,0,0,0,0,0,0,0,0,0,0,0,0,0,0,0,0,0,0,0,0,0,0,0,0,0,0,0,0,0,0,0,0,0,0,0,0,0,0,0,0,0,0,0,0,0,0,0,0,0,0,0,0,0,0,1.5771,1.5771,0,1.577,1.577,1.577,1.574,1.5739,1.5738,1.5738,1.5734,1.5735,1.5736,0,0,0,0,0,0,0,0,0,0,0,0,0,1.5747,1.5748,1.5771,1.5771,1.5771,1.577,1.577,1.577,1.574,1.5739,1.5738,1.5737,1.5734,1.5735,1.5736,0,0,0,0,0,0,0,0,0,0,0,0,0,1.5753,1.5748,1.5771,1.5756,1.5755,1.577,1.577,1.577,1.574,1.5739,1.5738,1.5737,1.5734,1.5735,1.5736,1.5765,0,0,1.5739,1.5739,0,0,0,0,0,0,0,0,1.5753,1.5754,1.5758,1.5757,1.5756,1.5754,1.576,1.5768,1.574,1.5746,1.5738,1.5736,1.5742,1.5742,1.5744,1.5765,1.5765,1.5739,1.574,1.574,1.574,0,0,0,0,0,0,0,1.5752,1.5754,1.5771,1.5759,1.5757,1.5749,1.5749,1.5762,1.575,1.5745,1.5743,1.5743,1.5741,1.5743,1.5744,1.5765,1.5739,1.574,1.574,1.5741,1.581,1.5812,0,0,0,0,0,0,1.5754,1.5754,1.5771,1.5771,1.5751,1.5751,1.575,1.5756,1.575,1.5748,1.5744,1.5742,1.5742,1.5743,1.5744,1.5778,1.574,1.5741,1.5741,1.5809,1.5811,1.5812,0,0,0,0,0,0,1.5754,1.5756,1.5771,1.5762,1.5763,1.5752,1.5759,1.5756,1.5759,1.5749,1.5747,1.5749,1.5741,1.5742,1.576,1.5777,1.5741,1.5742,1.5808,1.581,1.5811,1.5845,0,0,0,0,0,0,1.5753,1.5756,1.5767,1.5762,1.5764,1.5788,1.576,1.5757,1.5761,1.5758,1.5753,1.5751,1.5741,1.5759,1.5761,1.5778,1.5743,1.5806,1.5808,1.5811,1.5843,1.5848,1.5853,0,0,0,0,0,1.5752,1.5776,1.5768,1.577,1.5777,1.5789,1.5789,1.5777,1.5762,1.5773,1.5767,1.5752,1.5776,1.5761,1.5763,1.578,1.5805,1.5808,1.581,1.584,1.5847,1.5853,0,0,0,0,0,0,1.5781,1.5775,1.5765,1.5788,1.5789,1.5783,1.5796,1.5784,1.5789,1.5786,1.577,1.5769,1.579,1.5787,1.5771,1.5809,1.5787,1.5791,1.5809,1.5816,1.5821,1.582,1.5744,0,0,0,0,0,1.5791,1.5801,1.5795,1.5815,1.5817,1.5807,1.5811,1.5802,1.5802,1.5802,1.5798,1.5798,1.5806,1.5811,1.5817,1.5843,1.5842,1.5856,1.5861,1.5866,1.5868,1.5882,1.5888,1.5821,1.5821,1.5821,0,0,1.5809,1.5807,1.5814,1.5821,1.5821,1.5832,1.5807,1.5819,1.5827,1.5804,1.582,1.5818,1.5817,1.5839,1.5849,1.5838,1.5887,1.5869,1.5873,1.5873,1.5886,1.5892,1.5897,1.5823,1.5823,1.5823,0,0,1.5848,1.5848,1.5865,1.5866,1.5867,1.5861,1.5865,1.5862,1.5859,1.5876,1.5859,1.5869,1.5882,1.5883,1.5885,1.5928,1.5913,1.593,1.5956,1.597,1.5975,1.598,1.5994,1.6,1.5933,1.5933,1.5933,0,1.5871,1.5887,1.5876,1.589,1.5893,1.5875,1.5892,1.5894,1.5896,1.5899,1.5887,1.5905,1.5903,1.5925,1.5936,1.5938,1.5943,1.5929,1.5976,1.598,1.5984,1.5998,1.6004,1.5935,1.5935,1.5935,1.5935,0,1.5915,1.5927,1.5941,1.5945,1.595,1.5966,1.5957,1.5964,1.5956,1.5951,1.5969,1.5967,1.5973,1.5978,1.5969,1.5999,1.5992,1.5978,1.5956,1.5993,1.6005,1.6011,1.5938,1.5938,1.5937,1.5936,0,0,1.5969,1.5969,1.5974,1.5976,1.5977,1.5986,1.6001,1.6009,1.6015,1.6018,1.603,1.6044,1.6031,1.6034,1.6025,1.6037,1.6071,1.6022,1.6022,1.603,1.6104,1.6114,1.612,1.6063,1.6064,1.6064,1.6104,0,1.6006,1.6033,1.6024,1.6051,1.6062,1.6046,1.606,1.6062,1.6058,1.6067,1.6063,1.6072,1.6056,1.6057,1.6069,1.6065,1.6085,1.6062,1.6073,1.6074,1.6072,1.6127,1.6136,1.6174,1.6109,1.611,1.6111,0,1.6052,1.6059,1.6087,1.6088,1.6092,1.6104,1.6111,1.612,1.6122,1.6119,1.6123,1.6112,1.6128,1.6108,1.6128,1.6112,1.6117,1.6116,1.6117,1.6116,1.6093,1.6126,1.6185,1.619,1.6118,1.6118,1.6117,0,1.6088,1.6104,1.6124,1.6126,1.6127,1.6136,1.6137,1.6139,1.6144,1.615,1.6153,1.6161,1.6165,1.6171,1.6162,1.6149,1.6185,1.6163,1.6182,1.6182,1.6188,1.6187,1.6247,1.6194,1.6194,1.6193,1.6193,0,1.613,1.6147,1.614,1.6151,1.6171,1.6162,1.6182,1.6181,1.6183,1.6194,1.6181,1.6191,1.618,1.619,1.6184,1.6202,1.6204,1.6201,1.6199,1.6202,1.6202,1.6203,1.62,1.6195,1.6195,1.6194,1.6194,0,1.6172,1.6168,1.6188,1.6188,1.6189,1.6203,1.6203,1.6214,1.6211,1.6226,1.6228,1.6223,1.6234,1.6227,1.6238,1.6234,1.6257,1.6252,1.6257,1.6255,1.6273,1.6271,1.6334,1.6342,1.6285,1.6285,1.6286,0,1.6198,1.6211,1.6214,1.6221,1.6224,1.6235,1.6241,1.6233,1.624,1.6245,1.6255,1.6266,1.6273,1.6291,1.6288,1.6297,1.6291,1.6313,1.6292,1.6294,1.629,1.6289,1.629,1.6316,1.6317,1.6317,1.6318,0,1.6244,1.6242,1.6252,1.6261,1.6269,1.6276,1.6282,1.6288,1.6281,1.6289,1.6301,1.6307,1.6319,1.6329,1.6337,1.6337,1.6326,1.6325,1.6329,1.6331,1.6333,1.6331,1.6267,1.6323,1.6322,1.6322,1.6322,1.6322,1.6278,1.629,1.6294,1.6306,1.631,1.6316,1.6327,1.6326,1.6336,1.6346,1.6341,1.6355,1.6358,1.6367,1.637,1.638,1.6371,1.6378,1.6379,1.638,1.6383,1.6333,1.6381,1.6381,1.6381,1.6381,1.6381,0,1.6323,1.6326,1.6337,1.6346,1.6356,1.6347,1.6353,1.6361,1.6374,1.6379,1.6387,1.6401,1.6411,1.641,1.642,1.6428,1.6424,1.6431,1.6429,1.643,1.639,1.6385,1.6435,1.6435,1.6435,1.6435,1.6435,1.6435,1.6347,1.6367,1.6366,1.6387,1.639,1.6404,1.6409,1.6414,1.6418,1.6435,1.6444,1.6444,1.6446,1.6456,1.6465,1.6465,1.6468,1.6477,1.6475,1.6438,1.6432,1.6427,1.6422,1.6479,1.6479,1.6513,1.6513,1.6514]}]]